Weather History for La Crosse, WI

Change the Weather History Date:

Wednesday, November 21, 2012

  Actual Average Record
Temperature  
Mean Temperature 52 °F 33 °F  
Max Temperature 65 °F 40 °F 72 °F (1990)
Min Temperature 38 °F 25 °F -9 °F (1880)
Degree Days  
Heating Degree Days 13 32  
Month to date heating degree days 494 557  
Since 1 July heating degree days 1178 1185  
Cooling Degree Days 0 0  
Month to date cooling degree days 0 0  
Year to date cooling degree days 1083 782  
Moisture  
Dew Point 40 °F    
Average Humidity 72    
Maximum Humidity 100    
Minimum Humidity 44    
Precipitation  
Precipitation 0.00 in 0.07 in 1.16 in (1920)
Month to date precipitation 1.24 1.42  
Year to date precipitation 24.70 31.11  
Snow  
Snow 0.00 in 0.20 in 2.20 in (1961)
Month to date snowfall 0.1 2.0  
Since 1 July snowfall 0.1 2.2  
Snow Depth 0.00 in    
Sea Level Pressure  
Sea Level Pressure 30.03 in    
Wind  
Wind Speed 13 mph (South)    
Max Wind Speed 21 mph    
Max Gust Speed 25 mph    
Visibility 6 miles    
Events Fog    
T = Trace of Precipitation, MM = Missing Value Source: NWS Daily Summary

Daily Weather History Graph

Daily Weather History Graph

Search for Another Location

Airport:

Trip Planner

Search our weather history database for the weather conditions in past years. The results will help you decide how hot, cold, wet, or windy it might be!

Date:

Astronomy

Nov. 21, 2012 Rise Set
Actual Time 7:08 AM CST 4:33 PM CST
Civil Twilight 6:36 AM CST 5:05 PM CST
Nautical Twilight 6:01 AM CST 5:40 PM CST
Astronomical Twilight 5:26 AM CST 6:14 PM CST
Moon 1:01 PM CST (11/21) 12:14 AM CST (11/21)
Length of Visible Light 10h 28m
Length of Day
9h 25m
First Quarter, 62% of the Moon is Illuminated
Nov 21
First Quarter
Nov 28
Full
Dec 6
Last Quarter
Dec 13
New
Dec 19
First Quarter

Hourly Weather History & Observations

Time (CST) Temp. Windchill Dew Point Humidity Pressure Visibility Wind Dir Wind Speed Gust Speed Precip Events Conditions
12:53 AM 39.0 °F 33.4 °F 39.0 °F 100% 30.16 in 0.2 mi South 8.1 mph - N/A Fog Fog
1:19 AM 39.2 °F 32.5 °F 39.2 °F 100% 30.13 in 0.5 mi South 10.4 mph - N/A Fog Fog
1:53 AM 39.0 °F 33.4 °F 39.0 °F 100% 30.15 in 0.5 mi SSE 8.1 mph - N/A Fog Fog
2:53 AM 39.0 °F 31.8 °F 37.9 °F 96% 30.14 in 0.5 mi SSE 11.5 mph - N/A Fog Fog
3:09 AM 39.2 °F 33.0 °F 37.4 °F 93% 30.12 in 1.0 mi SSE 9.2 mph - N/A   Overcast
3:53 AM 39.0 °F 32.8 °F 39.0 °F 100% 30.14 in 1.5 mi SSE 9.2 mph - N/A   Overcast
4:34 AM 39.2 °F 32.5 °F 37.4 °F 93% 30.11 in 2.0 mi South 10.4 mph - N/A   Overcast
4:53 AM 39.0 °F 31.0 °F 37.9 °F 96% 30.13 in 1.8 mi South 13.8 mph - N/A   Overcast
5:04 AM 37.4 °F 30.3 °F 37.4 °F 100% 30.10 in 2.0 mi SSE 10.4 mph - N/A   Overcast
5:53 AM 39.0 °F 32.3 °F 37.9 °F 96% 30.12 in 2.5 mi South 10.4 mph - N/A   Mostly Cloudy
6:02 AM 37.4 °F 30.8 °F 37.4 °F 100% 30.09 in 3.0 mi SSE 9.2 mph - N/A   Mostly Cloudy
6:09 AM 37.4 °F 29.3 °F 37.4 °F 100% 30.09 in 2.5 mi SSE 12.7 mph - N/A   Scattered Clouds
6:24 AM 39.2 °F 32.5 °F 37.4 °F 93% 30.08 in 3.0 mi SSE 10.4 mph - N/A   Partly Cloudy
6:53 AM 39.0 °F 32.3 °F 37.9 °F 96% 30.11 in 4.0 mi SSE 10.4 mph - N/A   Clear
7:53 AM 41.0 °F 35.2 °F 37.9 °F 89% 30.10 in 4.0 mi SSE 9.2 mph - N/A   Clear
8:53 AM 44.1 °F 38.1 °F 39.0 °F 82% 30.08 in 5.0 mi SSE 11.5 mph - N/A   Haze
9:53 AM 46.9 °F - 39.9 °F 77% 30.07 in 7.0 mi SSE 10.4 mph - N/A   Clear
10:53 AM 50.0 °F - 39.9 °F 68% 30.04 in 10.0 mi South 12.7 mph - N/A   Clear
11:53 AM 55.0 °F - 41.0 °F 59% 30.01 in 10.0 mi SSE 11.5 mph - N/A   Clear
12:53 PM 59.0 °F - 41.0 °F 51% 29.97 in 10.0 mi South 15.0 mph - N/A   Clear
1:53 PM 62.1 °F - 41.0 °F 46% 29.95 in 10.0 mi South 15.0 mph - N/A   Clear
2:53 PM 64.0 °F - 43.0 °F 46% 29.93 in 10.0 mi South 15.0 mph - N/A   Clear
3:53 PM 63.0 °F - 44.1 °F 50% 29.93 in 10.0 mi South 13.8 mph - N/A   Clear
4:53 PM 59.0 °F - 44.1 °F 58% 29.93 in 10.0 mi South 9.2 mph - N/A   Clear
5:53 PM 57.0 °F - 43.0 °F 59% 29.93 in 10.0 mi South 13.8 mph - N/A   Clear
6:53 PM 57.0 °F - 42.1 °F 57% 29.92 in 10.0 mi South 18.4 mph - N/A   Clear
7:53 PM 55.9 °F - 42.1 °F 60% 29.91 in 10.0 mi South 17.3 mph - N/A   Clear
8:53 PM 55.0 °F - 42.1 °F 62% 29.91 in 10.0 mi South 16.1 mph - N/A   Clear
9:53 PM 53.1 °F - 41.0 °F 64% 29.91 in 10.0 mi South 15.0 mph - N/A   Clear
10:53 PM 53.1 °F - 41.0 °F 64% 29.88 in 10.0 mi South 17.3 mph - N/A   Clear
11:53 PM 53.1 °F - 41.0 °F 64% 29.87 in 10.0 mi South 15.0 mph - N/A   Clear